| |
Missouri Department of Transportation

Social Media Facebook Twitter Flickr Blog YouTube RSS

Current METAR Information for All MoDOT Locations 
AWOS Home - General Info for all Airports
Current AWOS for all Airports - Current METAR for all Airports
Glossary - Disclaimer - Other Links


Automated Weather Observation System
Date: 12-20-2014
 
Location Current METAR Record
HANNIBAL METAR KHAE 210524Z AUTO 15003KT 10SM OVC031 04/01 A3020 RMK AO2
HARRISONVILLE  No current data available
LEBANON METAR KLBO 210515Z AUTO 00000KT 10SM BKN020 05/02 A3019 RMK AO2
MALDEN  No current data available
MARSHALL METAR KMHL 210626Z AUTO 16008KT 10SM OVC024 06/03 A3018 RMK AO2
MARYVILLE  No current data available
MEXICO  No current data available
MOBERLY  No current data available
NEVADA METAR KNVD 210550Z AUTO 19004KT 10SM OVC021 05/02 A3019 RMK AO2
PIEDMONT  No current data available
SIKESTON  No current data available
SULLIVAN METAR KUUV 210527Z AUTO 00000KT 10SM OVC021 05/01 A3024 RMK AO2
WARSAW  No current data available
About Us
How Do I...
Contact Us
Missouri Department of Transportation
Central Office
105 W. Capitol Avenue
Jefferson City, MO 65102
1-888-ASK-MODOT (275-6636)
1-866-831-6277 (Motor Carrier Services)
Drivers License Offices
horz_bar
| | |
Missouri State Government
© 2013 Missouri Department of Transportation. All Rights Reserved.   Privacy Policy.
 
 
 
 
RSS FeedYoutubeBlogFlickrTwitter Facebook